Weather History for Alexandria Esle, LA

Change the Weather History Date:

Saturday, October 13, 2012

  Actual Average Record
Temperature  
Mean Temperature 73 °F -  
Max Temperature 87 °F 82 °F 91 °F (1963)
Min Temperature 60 °F 55 °F 39 °F (2000)
Cooling Degree Days 8    
Growing Degree Days 23 (Base 50)    
Moisture  
Dew Point 64 °F    
Average Humidity 86    
Maximum Humidity 100    
Minimum Humidity 51    
Precipitation  
Precipitation 0.00 in - - ()
Sea Level Pressure  
Sea Level Pressure 30.14 in    
Wind  
Wind Speed 2 mph (South)    
Max Wind Speed 10 mph    
Max Gust Speed 18 mph    
Visibility 4 miles    
Events Fog    
Averages and records for this station are not official NWS values.
T = Trace of Precipitation, MM = Missing Value Source: NWS Daily Summary

Daily Weather History Graph

Daily Weather History Graph

Search for Another Location

Airport:

Trip Planner

Search our weather history database for the weather conditions in past years. The results will help you decide how hot, cold, wet, or windy it might be!

Date:

Astronomy

Oct. 13, 2012 Rise Set
Actual Time 7:11 AM CDT 6:38 PM CDT
Civil Twilight 6:46 AM CDT 7:03 PM CDT
Nautical Twilight 6:18 AM CDT 7:31 PM CDT
Astronomical Twilight 5:50 AM CDT 7:59 PM CDT
Moon 5:07 AM CDT (10/13) 5:19 PM CDT (10/13)
Length of Visible Light 12h 16m
Length of Day
11h 27m
Waning Crescent, 5% of the Moon is Illuminated
Oct 13
Waning Crescent
Oct 15
New
Oct 21
First Quarter
Oct 29
Full
Nov 6
Last Quarter

Hourly Weather History & Observations

Time (CDT) Temp. Heat Index Dew Point Humidity Pressure Visibility Wind Dir Wind Speed Gust Speed Precip Events Conditions
12:02 AM 62.6 °F - 60.8 °F 94% 30.16 in 2.0 mi Calm Calm - N/A   Clear
12:06 AM 62.6 °F - 60.8 °F 94% 30.16 in 0.8 mi Calm Calm - N/A   Clear
12:22 AM 62.6 °F - 60.8 °F 94% 30.16 in 1.0 mi Calm Calm - N/A   Clear
12:31 AM 62.6 °F - 60.8 °F 94% 30.16 in 0.8 mi Calm Calm - N/A   Clear
12:53 AM 62.6 °F - 60.8 °F 94% 30.15 in 1.8 mi Calm Calm - N/A   Clear
1:11 AM 62.6 °F - 62.6 °F 100% 30.15 in 3.0 mi Calm Calm - N/A   Clear
1:30 AM 62.6 °F - 60.8 °F 94% 30.15 in 1.8 mi Calm Calm - N/A   Clear
1:53 AM 63.0 °F - 61.0 °F 93% 30.15 in 1.2 mi Calm Calm - N/A   Clear
1:59 AM 62.6 °F - 60.8 °F 94% 30.15 in 3.0 mi Calm Calm - N/A   Clear
2:27 AM 64.4 °F - 62.6 °F 94% 30.15 in 2.5 mi Calm Calm - N/A   Clear
2:53 AM 63.0 °F - 61.0 °F 93% 30.15 in 2.0 mi Calm Calm - N/A   Partly Cloudy
3:09 AM 62.6 °F - 60.8 °F 94% 30.15 in 0.5 mi Calm Calm - N/A Fog Fog
3:23 AM 62.6 °F - 60.8 °F 94% 30.15 in 0.5 mi Calm Calm - N/A Fog Fog
3:53 AM 62.1 °F - 61.0 °F 96% 30.14 in 1.2 mi Calm Calm - N/A   Scattered Clouds
4:05 AM 62.6 °F - 60.8 °F 94% 30.14 in 1.0 mi Calm Calm - N/A   Mist
4:13 AM 62.6 °F - 60.8 °F 94% 30.15 in 0.5 mi Calm Calm - N/A Fog Fog
4:44 AM 60.8 °F - 59.0 °F 94% 30.15 in 1.2 mi Calm Calm - N/A   Scattered Clouds
4:53 AM 60.1 °F - 59.0 °F 96% 30.14 in 1.8 mi Calm Calm - N/A   Scattered Clouds
5:03 AM 60.8 °F - 59.0 °F 94% 30.15 in 2.0 mi Calm Calm - N/A   Mostly Cloudy
5:25 AM 60.8 °F - 59.0 °F 94% 30.15 in 0.8 mi Calm Calm - N/A   Mist
5:37 AM 62.6 °F - 60.8 °F 94% 30.16 in 2.0 mi Calm Calm - N/A   Overcast
5:53 AM 62.1 °F - 60.1 °F 93% 30.16 in 3.0 mi Calm Calm - N/A   Overcast
6:33 AM 64.4 °F - 62.6 °F 94% 30.17 in 1.8 mi Calm Calm - N/A   Overcast
6:44 AM 64.4 °F - 62.6 °F 94% 30.17 in 0.5 mi Calm Calm - N/A Fog Fog
6:48 AM 64.4 °F - 62.6 °F 94% 30.17 in 0.2 mi Calm Calm - N/A Fog Fog
6:53 AM 64.9 °F - 63.0 °F 93% 30.17 in 0.2 mi Calm Calm - N/A Fog Fog
7:34 AM 69.8 °F - 68.0 °F 94% 30.17 in 0.2 mi Calm Calm - N/A Fog Fog
7:53 AM 69.1 °F - 68.0 °F 96% 30.18 in 0.2 mi SSE 4.6 mph - N/A Fog Fog
8:03 AM 69.8 °F - 68.0 °F 94% 30.18 in 0.5 mi SE 3.5 mph - N/A Fog Fog
8:17 AM 69.8 °F - 68.0 °F 94% 30.18 in 1.0 mi SE 3.5 mph - N/A   Overcast
8:41 AM 69.8 °F - 69.8 °F 100% 30.18 in 2.0 mi SE 6.9 mph - N/A   Overcast
8:53 AM 70.0 °F - 69.1 °F 97% 30.19 in 2.5 mi SSE 5.8 mph - N/A   Overcast
9:05 AM 71.6 °F - 69.8 °F 94% 30.19 in 4.0 mi SSE 4.6 mph - N/A   Overcast
9:28 AM 71.6 °F - 69.8 °F 94% 30.19 in 5.0 mi Variable 3.5 mph - N/A   Overcast
9:53 AM 71.1 °F - 69.1 °F 93% 30.19 in 6.0 mi South 6.9 mph - N/A   Overcast
10:48 AM 75.2 °F - 69.8 °F 83% 30.19 in 9.0 mi South 4.6 mph - N/A   Overcast
10:53 AM 75.9 °F - 70.0 °F 82% 30.18 in 9.0 mi SSE 5.8 mph - N/A   Overcast
11:33 AM 77.0 °F - 69.8 °F 78% 30.18 in 10.0 mi South 9.2 mph - N/A   Overcast
11:53 AM 80.1 °F 83.2 °F 70.0 °F 71% 30.17 in 10.0 mi Variable 5.8 mph - N/A   Mostly Cloudy
12:46 PM 82.4 °F 86.3 °F 69.8 °F 66% 30.15 in 10.0 mi SSW 10.4 mph - N/A   Mostly Cloudy
12:53 PM 80.6 °F 83.9 °F 69.8 °F 70% 30.14 in 10.0 mi South 6.9 mph - N/A   Mostly Cloudy
1:53 PM 84.9 °F 87.6 °F 66.9 °F 55% 30.09 in 10.0 mi South 9.2 mph - N/A   Scattered Clouds
2:53 PM 84.2 °F 86.6 °F 66.2 °F 55% 30.07 in 10.0 mi SSE 6.9 mph - N/A   Mostly Cloudy
3:53 PM 86.0 °F 88.2 °F 66.0 °F 51% 30.04 in 10.0 mi South 8.1 mph 18.4 mph N/A   Scattered Clouds
4:53 PM 84.0 °F 86.5 °F 66.9 °F 56% 30.04 in 10.0 mi SSW 5.8 mph - N/A   Scattered Clouds
5:53 PM 82.9 °F 85.0 °F 66.0 °F 56% 30.03 in 10.0 mi South 5.8 mph - N/A   Clear
7:53 PM 75.9 °F - 64.9 °F 69% 30.03 in 10.0 mi South 5.8 mph - N/A   Clear
8:53 PM 75.9 °F - 66.0 °F 71% 30.06 in 10.0 mi South 6.9 mph - N/A   Clear
9:53 PM 75.0 °F - 66.9 °F 76% 30.07 in 10.0 mi South 5.8 mph - N/A   Clear
10:53 PM 73.4 °F - 68.0 °F 83% 30.06 in 10.0 mi South 5.8 mph - N/A   Clear
11:53 PM 73.4 °F - 68.0 °F 83% 30.04 in 10.0 mi South 8.1 mph - N/A   Clear